This is the latest recevied weather packets stored in our database for station/object VE6EN. If no packets are shown the sender has not sent any weather packets the latest 1 day(s).
| Time | Temp. | Humidity | Pressure | Rain* | Wind** | Luminosity | Snow |
|---|---|---|---|---|---|---|---|
| 1836274377 | 14.44° C | 67% | 1012.3 hPa | 0 mm | 0 m/s | - | - |
| 1836274228 | 14.44° C | 67% | 1012.3 hPa | 0 mm | 0 m/s | - | - |
| 1778053798 | 1.11° C | 54% | 1013.3 hPa | 0 mm | 0.45 m/s, 38° | - | - |
| 1778053197 | 1.11° C | 54% | 1013.4 hPa | 0 mm | 0.45 m/s, 59° | - | - |
| 1778052597 | 1.11° C | 53% | 1013.5 hPa | 0 mm | 0 m/s | - | - |
| 1778051996 | 1.67° C | 53% | 1013.7 hPa | 0 mm | 0.45 m/s, 48° | - | - |
| 1778051398 | 1.67° C | 52% | 1013.8 hPa | 0 mm | 0.45 m/s, 82° | - | - |
| 1778050799 | 1.67° C | 51% | 1013.9 hPa | 0 mm | 0.45 m/s, 53° | - | - |
| 1778050200 | 1.67° C | 51% | 1014 hPa | 0 mm | 0.45 m/s, 36° | - | - |
| 1778049599 | 2.22° C | 50% | 1014.2 hPa | 0 mm | 0.45 m/s, 96° | - | - |
| 1778048999 | 2.22° C | 50% | 1014.3 hPa | 0 mm | 0 m/s | - | - |
| 1778048399 | 2.22° C | 49% | 1014.3 hPa | 0 mm | 0 m/s | - | - |
| 1778047799 | 2.78° C | 48% | 1014.5 hPa | 0 mm | 0 m/s | - | - |
| 1778047199 | 2.78° C | 48% | 1014.6 hPa | 0 mm | 0.45 m/s, 70° | - | - |
| 1778046599 | 2.78° C | 48% | 1014.6 hPa | 0 mm | 0.45 m/s, 96° | - | - |
| 1778045999 | 2.78° C | 49% | 1014.8 hPa | 0 mm | 0 m/s | - | - |
| 1778045398 | 2.78° C | 49% | 1014.9 hPa | 0 mm | 0.45 m/s, 50° | - | - |
| 1778044800 | 3.33° C | 48% | 1014.9 hPa | 0 mm | 0 m/s | - | - |
| 1778044205 | 3.33° C | 47% | 1015 hPa | 0 mm | 0 m/s | - | - |
| 1778043600 | 3.89° C | 46% | 1015.1 hPa | 0 mm | 0.45 m/s, 52° | - | - |
| 1778043000 | 3.89° C | 46% | 1015.2 hPa | 0 mm | 0.45 m/s, 53° | - | - |
| 1778042399 | 3.89° C | 46% | 1015.3 hPa | 0 mm | 0.89 m/s, 53° | - | - |
| 1778041799 | 4.44° C | 46% | 1015.2 hPa | 0 mm | 0.89 m/s, 90° | - | - |
| 1778041200 | 4.44° C | 45% | 1015.3 hPa | 0 mm | 0.45 m/s, 34° | - | - |
| 1778040604 | 4.44° C | 44% | 1015.4 hPa | 0 mm | 0.45 m/s, 70° | - | - |
* Rain latest hour (hover to see other rain measurements)
** Current wind speed in m/s (hover to see current wind gust speed)